User: anonymous   Login
Location: Caltech
(34.1382°N, 118.1253°W)
Time: 14:01:34
(UTC-08:00)
Language:

TMSAT-1 - Orbit

View from above orbital plane
View from above orbital plane
View from above satellite
View from above satellite

Ground track
Ground track

The orbit data is extracted from the following two-line orbital elements,

1 25396U 98043C   17326.90767561 +.00000039 +00000-0 +35367-4 0  9999
2 25396 098.6021 267.4412 0001924 203.6904 156.4187 14.24461768006516
Epoch (UTC): 22 November 2017 21:47:03
Eccentricity: 0.0001924
inclination: 98.6021°
perigee height: 809 km
apogee height: 811 km
right ascension of ascending node: 267.4412°
argument of perigee: 203.6904°
revolutions per day: 14.24461768
mean anomaly at epoch: 156.4187°
orbit number at epoch: 651

The dashed part of the orbit path shows where the satellite is in the earth's shadow,  

DLR